TimeMDT,TemperatureF,Dew PointF,Humidity,Sea Level PressureIn,VisibilityMPH,Wind Direction,Wind SpeedMPH,Gust SpeedMPH,PrecipitationIn,Events,Conditions,WindDirDegrees,DateUTC
12:53 AM,39.9,10.9,31,30.05,10.0,ENE,4.6,-,N/A,,Clear,60,2013-04-28 06:53:00
1:53 AM,37.0,10.9,34,30.04,10.0,ENE,8.1,-,N/A,,Clear,70,2013-04-28 07:53:00
2:53 AM,33.1,12.9,43,30.04,10.0,Calm,Calm,-,N/A,,Clear,0,2013-04-28 08:53:00
3:53 AM,33.1,10.9,40,30.03,10.0,East,4.6,-,N/A,,Clear,90,2013-04-28 09:53:00
4:53 AM,30.9,12.0,46,30.05,10.0,East,4.6,-,N/A,,Clear,100,2013-04-28 10:53:00
5:53 AM,33.1,14.0,46,30.04,10.0,East,4.6,-,N/A,,Clear,90,2013-04-28 11:53:00
6:53 AM,33.1,12.9,43,30.05,10.0,East,5.8,-,N/A,,Clear,80,2013-04-28 12:53:00
7:53 AM,45.0,15.1,30,30.04,10.0,ENE,3.5,-,N/A,,Clear,70,2013-04-28 13:53:00
8:53 AM,53.1,18.0,25,30.03,10.0,Calm,Calm,-,N/A,,Clear,0,2013-04-28 14:53:00
9:53 AM,63.0,17.1,17,30.01,10.0,Calm,Calm,-,N/A,,Clear,0,2013-04-28 15:53:00
10:53 AM,68.0,12.9,12,29.99,10.0,SSW,9.2,-,N/A,,Clear,210,2013-04-28 16:53:00
11:53 AM,70.0,12.9,11,29.98,10.0,SW,6.9,-,N/A,,Clear,230,2013-04-28 17:53:00
12:53 PM,73.9,12.0,9,29.96,10.0,SW,11.5,21.9,N/A,,Clear,220,2013-04-28 18:53:00
1:53 PM,73.0,9.0,8,29.96,10.0,Variable,4.6,-,N/A,,Clear,0,2013-04-28 19:53:00
2:44 PM,75.2,6.8,7,30.08,10.0,Variable,6.9,27.6,N/A,,Clear,0,2013-04-28 20:44:00
2:53 PM,75.0,3.9,6,29.93,10.0,North,-9999.0,-,N/A,,Clear,0,2013-04-28 20:53:00
3:53 PM,75.0,3.9,6,29.90,10.0,West,10.4,16.1,N/A,,Clear,280,2013-04-28 21:53:00
4:53 PM,75.0,7.0,7,29.88,10.0,WSW,9.2,-,N/A,,Clear,250,2013-04-28 22:53:00
5:53 PM,75.0,12.9,9,29.86,10.0,West,11.5,-,N/A,,Clear,260,2013-04-28 23:53:00
6:53 PM,73.0,14.0,11,29.85,10.0,West,11.5,18.4,N/A,,Clear,260,2013-04-29 00:53:00
7:53 PM,66.9,16.0,14,29.85,10.0,WSW,6.9,-,N/A,,Clear,250,2013-04-29 01:53:00
8:53 PM,57.0,16.0,20,29.86,10.0,SSW,5.8,-,N/A,,Clear,210,2013-04-29 02:53:00
9:53 PM,51.1,18.0,27,29.86,10.0,ENE,5.8,-,N/A,,Clear,70,2013-04-29 03:53:00
10:53 PM,48.0,16.0,28,29.86,10.0,ENE,10.4,-,N/A,,Clear,60,2013-04-29 04:53:00
11:53 PM,44.1,16.0,32,29.86,10.0,Variable,3.5,-,N/A,,Clear,0,2013-04-29 05:53:00